Regional Weather Roundup
Issued by NWS

Home | Current Version | Previous Version | Graphics & Text | Print | Product List | Glossary On
Versions: 1 2 3 4 5 6 7 8 9 10 11 12 13 14 15 16 17 18 19 20 21 22 23 24 25 26 27 28 29 30 31 32 33 34 35 36 37 38 39 40 41 42 43 44 45 46 47 48 49 50
000
ASUS43 KOAX 191610
RWRNE

WEATHER ROUNDUP FOR NEBRASKA
NATIONAL WEATHER SERVICE OMAHA NE
1000 AM CST SUN NOV 19 2017

NOTES: SATELLITE DATA IS BEING USED TO AUGMENT CLOUD COVER ABOVE
       12000 FEET.
       "FAIR" INDICATES FEW OR NO CLOUDS BELOW 12,000 FEET WITH NO
       SIGNIFICANT WEATHER AND/OR OBSTRUCTIONS TO VISIBILITY.


NEZ001>004-019>022-054>056-191700-
NEBRASKA PANHANDLE

CITY           SKY/WX    TMP DP  RH WIND       PRES   REMARKS
SCOTTSBLUFF    SUNNY     41  22  46 NW8       30.08F
ALLIANCE       SUNNY     41  24  51 W12       30.05F
CHADRON        SUNNY     37  25  61 SW5       30.04F WCI  33
GORDON         FAIR      37  22  54 W9        30.03S WCI  31
KIMBALL        SUNNY     40  22  48 W8        30.11F WCI  35
SIDNEY         SUNNY     39  24  55 SW9       30.12S WCI  33
$$

NEZ057>060-069>072-079>082-191700-
SOUTHWEST NEBRASKA

CITY           SKY/WX    TMP DP  RH WIND       PRES   REMARKS
NORTH PLATTE   SUNNY     36  25  64 NW7       30.14F WCI  30
IMPERIAL       SUNNY     35  23  61 W14       30.14F WCI  26
LEXINGTON      SUNNY     36  27  70 SW3       30.15F
MCCOOK         SUNNY     35  24  64 SW9       30.17F WCI  28
OGALLALA       SUNNY     33  24  69 W9        30.12F WCI  25
$$

NEZ005>010-023>029-035>040-094-191700-
NORTH CENTRAL NEBRASKA

CITY           SKY/WX    TMP DP  RH WIND       PRES   REMARKS
VALENTINE      SUNNY     37  24  59 W12       30.04F WCI  29
AINSWORTH      SUNNY     37  26  65 SW13      30.06S WCI  29
BROKEN BOW     SUNNY     40  24  53 W17       30.12S WCI  31
O`NEILL        SUNNY     36  30  78 SW9       30.08F WCI  29
ORD            SUNNY     34  27  75 S6        30.12F WCI  29
THEDFORD       SUNNY     42  23  46 SW10      30.08F
$$

NEZ041-046>049-061>064-073>077-083>087-191700-
SOUTH CENTRAL NEBRASKA

CITY           SKY/WX    TMP DP  RH WIND       PRES   REMARKS
GRAND ISLAND   SUNNY     37  27  67 W10       30.17S WCI  30
AURORA         SUNNY     37  29  75 SW5       30.17S WCI  33
HASTINGS       SUNNY     39  25  57 SW8       30.18S WCI  33
HEBRON         SUNNY     37  28  69 SW5       30.22F WCI  33
HOLDREGE       SUNNY     39  26  57 W6        30.17S
KEARNEY        SUNNY     37  24  59 SW6       30.16F WCI  32
YORK           SUNNY     34  30  86 CALM      30.18S
$$

NEZ011>018-030>034-042>045-191700-
NORTHEAST NEBRASKA

CITY           SKY/WX    TMP DP  RH WIND       PRES   REMARKS
NORFOLK        SUNNY     37  28  70 SW5       30.11F WCI  33
ALBION         SUNNY     36  30  77 S3        30.13F
BLAIR          SUNNY     35  29  77 S10       30.17S WCI  28
COLUMBUS       SUNNY     34  26  72 SW5       30.16F WCI  30
FREMONT        SUNNY     36  29  75 S7        30.18F WCI  30
TEKAMAH        SUNNY     34  27  75 S8        30.18S WCI  27
WAYNE          SUNNY     37  28  70 SW7       30.12F WCI  31
$$

NEZ050>053-065>068-078-088>093-191700-
SOUTHEAST NEBRASKA

CITY           SKY/WX    TMP DP  RH WIND       PRES   REMARKS
LINCOLN        SUNNY     38  29  70 S6        30.22S WCI  33
OMAHA EPPLEY   MOSUNNY   35  25  66 S8        30.20F WCI  29
BEATRICE       SUNNY     39  31  73 S10       30.21F WCI  32
FALLS CITY     SUNNY     38  28  67 S7        30.25S WCI  33
NEBRASKA CITY  SUNNY     37  30  75 SW12      30.22F WCI  29
PLATTSMOUTH    SUNNY     36  29  77 S9        30.20F WCI  29
$$

NEZ044-045-051>053-067-191700-
OMAHA AREA

CITY           SKY/WX    TMP DP  RH WIND       PRES   REMARKS
OMAHA EPPLEY   MOSUNNY   35  25  66 S8        30.20F WCI  29
BLAIR          SUNNY     35  29  77 S10       30.17S WCI  28
FREMONT        SUNNY     36  29  75 S7        30.18F WCI  30
MILLARD        SUNNY     39  29  67 S5        30.20S
OFFUTT AFB     SUNNY     35  27  72 S6        30.20S WCI  30
PLATTSMOUTH    SUNNY     36  29  77 S9        30.20F WCI  29
WAHOO          FAIR      39  29  67 SW8       30.19S WCI  33
$$




USA.gov is the U.S. government's official web portal to all federal, state and local government web resources and services.